Location: Peebles
(55.6412°N, 3.1714°W)
Time: 11:54:08
(UTC+00:00)

CUTE-I - Pass Details

Date: 16 December 2023
Orbit: 807 x 823 km, 98.7° (Epoch: 24 February)

Event Time Altitude Azimuth Distance (km) Brightness Sun altitude
Rises 17:37:35 0° 172° (S) 3,326 ? -14.9°
Reaches altitude 10° 17:39:56 10° 175° (S) 2,401 ? -15.2°
Maximum altitude 17:45:13 64° 257° (WSW) 906 ? -15.9°
Drops below altitude 10° 17:50:34 10° 339° (NNW) 2,429 ? -16.7°
Sets 17:52:57 0° 343° (NNW) 3,368 ? -17.0°
